K4AVM-13 Weather Reports


time (UTC)temp
F
wind
direction
speed
knots
gust
knots
rain 1hr
in
rain 24hr
in
rain mn
in
humidity
%
barometer
mb
20260509095234 51 160 0.9 0.9 0.00 0.00 0.00 92 1014.4
20260509094731 51 136 0.0 0.0 0.00 0.00 0.00 91 1014.4
20260509094228 51 134 0.0 0.0 0.00 0.00 0.00 91 1014.4
20260509093726 52 127 0.0 0.0 0.00 0.00 0.00 91 1014.5
20260509093223 52 136 0.0 0.0 0.00 0.00 0.00 90 1014.4
20260509092721 52 144 0.0 0.0 0.00 0.00 0.00 89 1014.6
20260509092219 52 136 0.0 0.0 0.00 0.00 0.00 89 1014.9
20260509091717 53 151 0.0 0.0 0.00 0.00 0.00 88 1014.6
20260509091212 53 135 0.0 0.9 0.00 0.00 0.00 87 1014.7
20260509090710 53 150 0.0 0.0 0.00 0.00 0.00 87 1014.5
20260509090207 53 173 0.0 0.0 0.00 0.00 0.00 87 1014.6
20260509085705 53 138 0.0 0.0 0.00 0.00 0.00 87 1014.6
20260509085201 53 136 0.0 0.0 0.00 0.00 0.00 87 1014.5
20260509084658 53 139 0.0 0.9 0.00 0.00 0.00 87 1014.4
20260509084155 53 136 0.0 0.9 0.00 0.00 0.00 87 1014.4
20260509083653 52 141 0.0 0.0 0.00 0.00 0.00 87 1014.3
20260509083149 52 141 0.0 0.0 0.00 0.00 0.00 86 1014.5
20260509082646 52 150 0.0 0.0 0.00 0.00 0.00 86 1014.4
20260509082143 52 127 0.0 0.0 0.00 0.00 0.00 86 1014.3
20260509081640 52 152 0.0 0.0 0.00 0.00 0.00 86 1014.2
20260509081137 52 133 0.0 0.0 0.00 0.00 0.00 85 1014.2
20260509080635 53 134 0.0 0.0 0.00 0.00 0.00 84 1014.4
20260509080133 53 131 0.0 0.0 0.00 0.00 0.00 83 1014.3
20260509075631 53 141 0.0 0.0 0.00 0.00 0.00 82 1014.5
20260509075128 54 134 0.0 0.0 0.00 0.00 0.00 81 1014.5
20260509074625 55 136 0.0 0.0 0.00 0.00 0.00 80 1014.7
20260509074121 55 136 0.0 0.0 0.00 0.00 0.00 79 1014.6
20260509073618 55 150 0.0 0.0 0.00 0.00 0.00 79 1014.8
20260509073114 55 154 0.0 0.0 0.00 0.00 0.00 79 1014.8
20260509072611 56 141 0.0 0.0 0.00 0.00 0.00 78 1014.6
20260509072108 57 149 0.0 0.0 0.00 0.00 0.00 76 1014.6
20260509071604 57 127 0.0 0.9 0.00 0.00 0.00 75 1014.6
20260509071102 57 122 0.0 1.7 0.00 0.00 0.00 75 1014.7
20260509070559 56 131 0.9 2.6 0.00 0.00 0.00 76 1014.3
20260509070055 56 151 0.0 0.9 0.00 0.00 0.00 76 1014.5
20260509065551 55 149 0.0 0.0 0.00 0.00 0.00 77 1014.7
20260509065047 56 196 0.9 0.9 0.00 0.00 0.00 77 1014.7
20260509064545 56 136 0.0 1.7 0.00 0.00 0.00 77 1014.7
20260509064043 56 159 0.0 0.0 0.00 0.00 0.00 76 1015.0
20260509063538 56 171 0.0 0.9 0.00 0.00 0.00 76 1014.9
20260509063036 56 150 0.9 1.7 0.00 0.00 0.00 76 1015.2
20260509062533 56 182 0.0 1.7 0.00 0.00 0.00 76 1015.3
20260509062030 56 195 0.9 1.7 0.00 0.00 0.00 76 1015.5
20260509061527 56 152 0.0 0.9 0.00 0.00 0.00 75 1015.4
20260509061024 56 173 0.9 2.6 0.00 0.00 0.00 74 1015.6
20260509060522 55 164 0.9 0.9 0.00 0.00 0.00 76 1015.7
20260509060017 56 153 0.0 0.9 0.00 0.00 0.00 74 1015.7
20260509055513 55 161 0.0 0.0 0.00 0.00 0.00 74 1015.6
20260509055009 55 141 0.9 1.7 0.00 0.00 0.00 73 1015.6
20260509054506 56 166 0.0 0.9 0.00 0.00 0.00 72 1015.6
20260509054004 55 135 0.0 0.9 0.00 0.00 0.00 73 1015.6
20260509053502 55 141 0.0 0.9 0.00 0.00 0.00 72 1015.6
20260509052959 55 151 0.0 0.0 0.00 0.00 0.00 72 1015.8
20260509052456 55 154 0.0 0.9 0.00 0.00 0.00 71 1015.5
20260509051954 55 144 0.0 0.0 0.00 0.00 0.00 71 1015.4
20260509051452 55 154 0.0 0.0 0.00 0.00 0.00 71 1015.4
20260509050949 55 154 0.0 0.0 0.00 0.00 0.00 71 1015.3
20260509050445 54 151 0.0 0.9 0.00 0.00 0.00 71 1015.6
20260509045942 54 152 0.0 0.0 0.00 0.00 0.00 72 1015.3
20260509045439 53 153 0.0 0.0 0.00 0.00 0.00 72 1015.4
20260509044936 54 149 0.0 0.0 0.00 0.00 0.00 72 1015.3
20260509044434 54 150 0.0 0.0 0.00 0.00 0.00 72 1015.2
20260509043931 53 136 0.0 0.0 0.00 0.00 0.00 73 1015.4
20260509043426 53 149 0.0 0.0 0.00 0.00 0.00 72 1015.2
20260509042922 53 141 0.0 0.0 0.00 0.00 0.00 72 1015.4
20260509042420 53 145 0.0 0.0 0.00 0.00 0.00 72 1015.3
20260509041915 53 141 0.0 0.0 0.00 0.00 0.00 71 1015.4
20260509041413 53 151 0.0 0.0 0.00 0.00 0.00 72 1015.3
20260509040911 53 136 0.0 0.0 0.00 0.00 0.00 71 1015.5
20260509040408 54 136 0.0 0.0 0.00 0.00 0.00 70 1015.5
20260509035905 54 136 0.0 0.0 0.00 0.00 0.00 70 1015.4
20260509035402 54 141 0.0 0.0 0.00 0.00 0.00 69 1015.5
20260509034858 54 141 0.0 0.0 0.00 0.00 0.00 68 1015.5
20260509034356 54 136 0.0 0.0 0.00 0.00 0.00 69 1015.5
20260509033853 55 136 0.0 0.0 0.00 0.00 0.00 67 1015.7
20260509033350 55 145 0.0 0.0 0.00 0.00 0.00 66 1015.7
20260509032846 55 141 0.0 0.0 0.00 0.00 0.00 65 1015.8
20260509032343 56 141 0.0 0.0 0.00 0.00 0.00 64 1015.6
20260509031842 56 136 0.0 0.0 0.00 0.00 0.00 63 1015.8
20260509031333 57 149 0.0 0.0 0.00 0.00 0.00 61 1015.6
20260509030831 57 141 0.0 0.0 0.00 0.00 0.00 60 1015.5
20260509030328 57 163 0.0 0.0 0.00 0.00 0.00 61 1015.5
20260509025825 57 141 0.0 0.0 0.00 0.00 0.00 59 1015.5
20260509025320 57 156 0.0 0.0 0.00 0.00 0.00 59 1015.7
20260509024816 57 145 0.0 0.0 0.00 0.00 0.00 58 1015.6
20260509024312 57 117 0.0 0.0 0.00 0.00 0.00 57 1015.8
20260509023810 58 132 0.0 0.0 0.00 0.00 0.00 55 1015.7
20260509023307 57 136 0.0 0.9 0.00 0.00 0.00 56 1015.7
20260509022803 57 136 0.0 0.0 0.00 0.00 0.00 55 1015.4
20260509022301 57 149 0.0 0.9 0.00 0.00 0.00 54 1015.8
20260509021757 57 155 0.0 0.9 0.00 0.00 0.00 55 1015.7
20260509021255 57 145 0.0 0.0 0.00 0.00 0.00 54 1015.8
20260509020752 57 151 0.0 0.0 0.00 0.00 0.00 54 1016.0
20260509020250 57 152 0.0 0.0 0.00 0.00 0.00 52 1015.6
20260509015747 57 151 0.0 0.0 0.00 0.00 0.00 52 1015.5
20260509015245 58 151 0.0 0.0 0.00 0.00 0.00 51 1015.3
20260509014741 58 141 0.0 0.0 0.00 0.00 0.00 51 1015.5
20260509014239 59 149 0.0 0.0 0.00 0.00 0.00 51 1015.4
20260509013735 59 152 0.0 0.0 0.00 0.00 0.00 50 1015.5
20260509013231 60 153 0.0 0.0 0.00 0.00 0.00 48 1015.3
20260509012728 60 153 0.0 0.0 0.00 0.00 0.00 48 1015.4
20260509012224 60 153 0.0 0.0 0.00 0.00 0.00 48 1015.2
20260509011722 60 151 0.0 0.0 0.00 0.00 0.00 49 1015.1
20260509011220 61 150 0.0 0.0 0.00 0.00 0.00 49 1015.1
20260509010717 60 144 0.9 0.9 0.00 0.00 0.00 49 1015.2
20260509010213 61 150 0.0 0.0 0.00 0.00 0.00 49 1015.1
20260509005711 61 150 0.0 0.0 0.00 0.00 0.00 49 1015.3
20260509005208 61 151 0.0 0.0 0.00 0.00 0.00 49 1015.2
20260509004702 62 150 0.0 0.0 0.00 0.00 0.00 48 1015.2
20260509004200 63 153 0.0 0.0 0.00 0.00 0.00 47 1015.0
20260509003658 64 150 0.0 0.0 0.00 0.00 0.00 44 1015.2
20260509003156 64 150 0.0 0.0 0.00 0.00 0.00 44 1015.0
20260509002653 64 150 0.0 0.9 0.00 0.00 0.00 44 1015.0
20260509002150 65 151 0.0 0.0 0.00 0.00 0.00 44 1014.9
20260509001648 65 242 0.0 0.9 0.00 0.00 0.00 42 1015.0
20260509001143 68 132 0.0 0.9 0.00 0.00 0.00 37 1014.8
20260509000642 68 132 0.0 0.9 0.00 0.00 0.00 37 1014.9
20260509000138 68 132 0.0 0.9 0.00 0.00 0.00 37 1014.8
20260508235636 68 132 0.0 0.9 0.00 0.00 0.00 37 1014.7
20260508235132 68 132 0.0 0.9 0.00 0.00 0.00 37 1014.6
20260508234629 68 132 0.0 0.9 0.00 0.00 0.00 37 1014.4
20260508234126 68 132 0.0 0.9 0.00 0.00 0.00 37 1014.5
20260508233625 68 132 0.0 0.9 0.00 0.00 0.00 37 1014.7
20260508233122 68 153 0.0 0.9 0.00 0.00 0.00 37 1014.6
20260508232619 68 227 0.9 2.6 0.00 0.00 0.00 38 1014.3
20260508232116 68 164 0.9 0.9 0.00 0.00 0.00 35 1014.6
20260508231614 68 164 0.9 0.9 0.00 0.00 0.00 35 1014.5
20260508231110 68 167 1.7 1.7 0.00 0.00 0.00 36 1014.5
20260508230607 69 187 0.9 0.9 0.00 0.00 0.00 37 1014.3
20260508230103 69 167 0.9 0.9 0.00 0.00 0.00 35 1014.4
20260508225601 69 150 2.6 2.6 0.00 0.00 0.00 34 1014.3
20260508225057 69 139 0.0 0.9 0.00 0.00 0.00 36 1014.5
20260508224556 69 162 0.0 1.7 0.00 0.00 0.00 38 1014.4
20260508224052 69 140 0.0 0.9 0.00 0.00 0.00 36 1014.4
20260508223550 69 168 0.9 0.9 0.00 0.00 0.00 37 1014.5
20260508223047 69 168 0.9 0.9 0.00 0.00 0.00 35 1014.4
20260508222545 69 168 0.9 0.9 0.00 0.00 0.00 36 1014.4
20260508222041 70 176 0.9 1.7 0.00 0.00 0.00 36 1014.7
20260508221538 70 167 0.0 1.7 0.00 0.00 0.00 36 1014.6
20260508221033 70 173 0.0 3.5 0.00 0.00 0.00 34 1014.7
20260508220531 70 155 0.0 0.9 0.00 0.00 0.00 33 1014.7
20260508220027 70 147 1.7 5.2 0.00 0.00 0.00 33 1014.7
20260508215524 71 144 1.7 2.6 0.00 0.00 0.00 33 1014.7
20260508215020 71 186 0.0 0.9 0.00 0.00 0.00 34 1014.6
20260508214518 72 153 1.7 7.0 0.00 0.00 0.00 32 1014.7
20260508214014 73 164 0.9 1.7 0.00 0.00 0.00 31 1014.5
20260508213512 74 144 0.0 0.9 0.00 0.00 0.00 30 1014.8
20260508213007 74 204 0.9 1.7 0.00 0.00 0.00 29 1014.8
20260508212504 74 162 0.9 1.7 0.00 0.00 0.00 30 1014.7
20260508212000 73 129 1.7 2.6 0.00 0.00 0.00 31 1014.5
20260508211455 74 163 0.0 1.7 0.00 0.00 0.00 31 1014.5
20260508210953 74 153 0.9 5.2 0.00 0.00 0.00 31 1014.5
20260508210449 74 176 0.9 1.7 0.00 0.00 0.00 30 1014.7
20260508205945 73 157 0.9 2.6 0.00 0.00 0.00 32 1014.6
20260508205443 73 188 0.9 1.7 0.00 0.00 0.00 31 1014.6
20260508204939 73 177 0.0 1.7 0.00 0.00 0.00 31 1014.8
20260508204437 73 137 0.9 2.6 0.00 0.00 0.00 31 1014.9
20260508203931 74 182 1.7 3.5 0.00 0.00 0.00 31 1014.9
20260508203428 75 127 0.0 0.9 0.00 0.00 0.00 30 1014.8
20260508202924 74 187 0.9 5.2 0.00 0.00 0.00 31 1015.0
20260508202422 75 123 0.9 2.6 0.00 0.00 0.00 31 1015.0
20260508201918 72 165 0.9 1.7 0.00 0.00 0.00 32 1015.1
20260508201415 72 150 2.6 3.5 0.00 0.00 0.00 31 1015.1
20260508200912 72 171 0.9 0.9 0.00 0.00 0.00 32 1015.0
20260508200409 73 190 1.7 7.8 0.00 0.00 0.00 31 1015.1
20260508195904 73 143 0.9 1.7 0.00 0.00 0.00 31 1015.2
20260508195401 73 173 1.7 2.6 0.00 0.00 0.00 30 1015.2
20260508194857 72 170 0.9 1.7 0.00 0.00 0.00 31 1015.3
20260508194354 72 170 1.7 2.6 0.00 0.00 0.00 30 1015.5
20260508193852 71 255 1.7 3.5 0.00 0.00 0.00 33 1015.4
20260508193348 72 175 1.7 1.7 0.00 0.00 0.00 32 1015.5
20260508192844 73 163 1.7 1.7 0.00 0.00 0.00 31 1015.4
20260508192342 72 152 0.9 3.5 0.00 0.00 0.00 30 1015.7
20260508191839 71 153 0.0 1.7 0.00 0.00 0.00 35 1015.8
20260508191336 72 79 3.5 5.2 0.00 0.00 0.00 34 1015.9
20260508190833 70 91 0.9 1.7 0.00 0.00 0.00 34 1015.9
20260508190329 71 192 1.7 1.7 0.00 0.00 0.00 33 1016.1
20260508185826 71 198 0.9 1.7 0.00 0.00 0.00 33 1016.1
20260508185323 71 191 0.0 1.7 0.00 0.00 0.00 31 1016.1
20260508184820 70 207 1.7 2.6 0.00 0.00 0.00 30 1016.3
20260508184318 71 141 1.7 2.6 0.00 0.00 0.00 30 1016.4
20260508183815 72 150 0.9 2.6 0.00 0.00 0.00 31 1016.3
20260508183311 71 156 1.7 3.5 0.00 0.00 0.00 33 1016.3
20260508182806 71 133 0.9 1.7 0.00 0.00 0.00 31 1016.4
20260508182306 70 206 1.7 1.7 0.00 0.00 0.00 33 1016.3
20260508181754 69 175 0.0 1.7 0.00 0.00 0.00 32 1016.6
20260508181250 70 170 1.7 2.6 0.00 0.00 0.00 32 1016.8
20260508180748 71 178 1.7 2.6 0.00 0.00 0.00 30 1016.7
20260508180244 71 153 2.6 3.5 0.00 0.00 0.00 32 1016.5
20260508175741 71 163 0.9 1.7 0.00 0.00 0.00 31 1016.9
20260508175237 70 186 0.0 1.7 0.00 0.00 0.00 39 1016.8
20260508174735 71 183 0.9 3.5 0.00 0.00 0.00 31 1016.9
20260508174233 70 137 0.9 2.6 0.00 0.00 0.00 32 1016.9
20260508173729 70 197 0.9 3.5 0.00 0.00 0.00 30 1016.8
20260508173225 69 195 0.9 1.7 0.00 0.00 0.00 30 1017.1
20260508172722 70 181 1.7 2.6 0.00 0.00 0.00 31 1017.2
20260508172219 70 113 1.7 3.5 0.00 0.00 0.00 32 1017.1
20260508171715 70 150 1.7 2.6 0.00 0.00 0.00 30 1017.4
20260508171211 69 156 0.9 1.7 0.00 0.00 0.00 33 1017.3
20260508170709 68 158 2.6 3.5 0.00 0.00 0.00 30 1017.5
20260508170206 68 134 0.9 7.0 0.00 0.00 0.00 34 1017.5
20260508165703 69 112 1.7 2.6 0.00 0.00 0.00 34 1017.9
20260508165200 69 199 2.6 5.2 0.00 0.00 0.00 30 1017.7
20260508164656 68 149 2.6 2.6 0.00 0.00 0.00 33 1017.6
20260508164153 68 104 0.0 0.9 0.00 0.00 0.00 35 1017.9
20260508163651 69 139 0.9 1.7 0.00 0.00 0.00 30 1017.9
20260508163148 68 233 0.9 2.6 0.00 0.00 0.00 35 1017.9
20260508162643 68 167 0.0 0.9 0.00 0.00 0.00 33 1018.1
20260508162141 68 174 0.0 1.7 0.00 0.00 0.00 34 1018.1
20260508161638 68 161 0.0 1.7 0.00 0.00 0.00 36 1018.2
20260508161135 68 156 0.9 1.7 0.00 0.00 0.00 34 1018.5
20260508160634 67 152 0.0 1.7 0.00 0.00 0.00 33 1018.4
20260508160131 69 147 0.0 0.9 0.00 0.00 0.00 31 1018.5
20260508155628 68 135 0.0 1.7 0.00 0.00 0.00 39 1018.6
20260508155124 66 152 0.0 1.7 0.00 0.00 0.00 38 1018.6
20260508154621 65 60 1.7 2.6 0.00 0.00 0.00 38 1018.7
20260508154118 65 140 0.0 0.9 0.00 0.00 0.00 41 1018.7
20260508153615 65 172 0.0 1.7 0.00 0.00 0.00 41 1018.8
20260508153112 64 151 0.9 1.7 0.00 0.00 0.00 40 1018.7
20260508152609 64 20 3.5 5.2 0.00 0.00 0.00 36 1018.8
20260508152104 66 140 0.0 1.7 0.00 0.00 0.00 42 1018.9
20260508151601 66 174 0.9 3.5 0.00 0.00 0.00 36 1018.9
20260508151058 64 157 0.0 0.9 0.00 0.00 0.00 38 1019.0
20260508150555 64 149 0.0 1.7 0.00 0.00 0.00 40 1019.0
20260508150050 65 151 0.9 1.7 0.00 0.00 0.00 46 1018.8
20260508145542 64 129 0.0 0.9 0.00 0.00 0.00 42 1019.1
20260508145038 63 193 0.9 1.7 0.00 0.00 0.00 42 1018.8
20260508144536 63 217 0.0 2.6 0.00 0.00 0.00 51 1018.8
20260508144034 62 135 0.9 1.7 0.00 0.00 0.00 45 1018.9
20260508143531 63 158 0.9 1.7 0.00 0.00 0.00 51 1018.8
20260508143027 63 145 0.9 1.7 0.00 0.00 0.00 45 1018.8
20260508142524 62 141 0.0 0.9 0.00 0.00 0.00 46 1018.7
20260508142021 63 185 0.0 1.7 0.00 0.00 0.00 48 1018.8
20260508141517 63 180 0.0 0.9 0.00 0.00 0.00 48 1018.7
20260508141015 62 115 0.9 1.7 0.00 0.00 0.00 49 1018.6
20260508140512 61 146 0.9 1.7 0.00 0.00 0.00 49 1019.0
20260508140008 61 20 2.6 2.6 0.00 0.00 0.00 52 1018.8
20260508135504 62 293 0.0 0.9 0.00 0.00 0.00 53 1019.1
20260508135001 61 153 0.9 0.9 0.00 0.00 0.00 53 1018.9
20260508134457 61 112 0.9 0.9 0.00 0.00 0.00 53 1019.0
20260508133954 60 142 0.9 0.9 0.00 0.00 0.00 55 1019.1
20260508133451 60 107 0.9 0.9 0.00 0.00 0.00 54 1018.9
20260508132948 60 107 0.9 0.9 0.00 0.00 0.00 54 1018.9
20260508132446 59 154 0.0 0.0 0.00 0.00 0.00 61 1018.8
20260508131943 60 320 3.5 5.2 0.00 0.00 0.00 61 1018.9
20260508131438 59 120 0.9 0.9 0.00 0.00 0.00 62 1019.0
20260508130935 59 192 1.7 2.6 0.00 0.00 0.00 63 1019.0
20260508130432 58 36 1.7 2.6 0.00 0.00 0.00 66 1019.0
20260508125927 58 93 0.9 0.9 0.00 0.00 0.00 67 1019.0
20260508125424 57 109 1.7 1.7 0.00 0.00 0.00 69 1018.8
20260508124922 57 109 1.7 1.7 0.00 0.00 0.00 69 1018.7
20260508124420 57 109 1.7 1.7 0.00 0.00 0.00 69 1018.9
20260508123917 57 109 1.7 1.7 0.00 0.00 0.00 69 1018.8
20260508123416 56 14 0.9 0.9 0.00 0.00 0.00 72 1018.6
20260508122911 56 3 3.5 3.5 0.00 0.00 0.00 74 1018.7
20260508122409 55 51 1.7 1.7 0.00 0.00 0.00 75 1018.6
20260508121906 51 92 0.0 0.9 0.00 0.00 0.00 99 1018.5
20260508121404 51 92 0.0 0.9 0.00 0.00 0.00 99 1018.4
20260508120901 51 92 0.0 0.9 0.00 0.00 0.00 99 1018.3
20260508120359 50 224 0.9 0.9 0.00 0.00 0.00 99 1018.2
20260508115856 49 100 0.9 1.7 0.00 0.00 0.00 99 1018.1
20260508115354 48 99 0.0 1.7 0.00 0.00 0.00 99 1018.1
20260508114850 47 184 0.0 0.9 0.00 0.00 0.00 99 1017.9
20260508114347 47 144 0.0 0.0 0.00 0.00 0.00 99 1018.0
20260508113844 46 221 0.0 0.9 0.00 0.00 0.00 99 1017.7
20260508113342 46 155 0.0 0.9 0.00 0.00 0.00 99 1017.9
20260508112838 46 270 0.0 0.9 0.00 0.00 0.00 99 1017.8
20260508112336 46 339 0.9 1.7 0.00 0.00 0.00 99 1017.7
20260508111831 45 162 0.0 0.0 0.00 0.00 0.00 99 1017.5
20260508111323 45 151 0.0 0.0 0.00 0.00 0.00 99 1017.4
20260508110820 44 153 0.0 0.0 0.00 0.00 0.00 99 1017.6
20260508110318 44 149 0.0 0.0 0.00 0.00 0.00 99 1017.5
20260508105817 44 155 0.0 0.0 0.00 0.00 0.00 99 1017.3
20260508105314 44 154 0.0 0.0 0.00 0.00 0.00 99 1017.1
20260508104811 43 153 0.0 0.0 0.00 0.00 0.00 99 1017.1
20260508104308 43 153 0.0 0.0 0.00 0.00 0.00 99 1017.0
20260508103805 43 152 0.0 0.0 0.00 0.00 0.00 99 1017.1
20260508103302 43 148 0.0 0.0 0.00 0.00 0.00 99 1016.9
20260508102800 43 156 0.0 0.0 0.00 0.00 0.00 99 1016.8
20260508102258 43 154 0.0 0.0 0.00 0.00 0.00 99 1016.8
20260508101755 43 154 0.0 0.0 0.00 0.00 0.00 99 1016.8
20260508101252 43 155 0.0 0.0 0.00 0.00 0.00 99 1016.6
20260508100750 43 152 0.0 0.0 0.00 0.00 0.00 99 1016.6
20260508100248 44 129 0.0 0.0 0.00 0.00 0.00 99 1016.6
20260508095743 44 119 0.0 0.0 0.00 0.00 0.00 99 1016.4